Location: Unnamed
(42.1164°N, 2.7652°E)
Time: 20:30:52
(UTC+02:00)

ISS - Pass Details

Date: 14 May 2021
Orbit: 417 x 422 km, 51.6° (Epoch: 15 June)

Event Time Altitude Azimuth Distance (km) Brightness Sun altitude
Rises 04:25:30 0° 307° (NW) 2,374 0.0 -18.9°
Reaches altitude 10° 04:27:43 10° 317° (NW) 1,508 -0.9 -18.6°
Maximum altitude 04:30:52 35° 25° (NNE) 699 -2.1 -18.2°
Drops below altitude 10° 04:34:01 10° 94° (E) 1,505 -0.4 -17.8°
Sets 04:36:13 0° 103° (ESE) 2,368 0.5 -17.6°
